Location: Jetmore Power Plant
(38.0802°N, 99.8938°W)
Time: 03:39:37
(UTC+00:00)

Daily predictions for brighter satellites

Satellite Brightness Start Highest point End
(mag) Time Altitude Azimuth Time Altitude Azimuth Time Altitude Azimuth
OAO 2 Rocket 3.7 00:01:11 10° W 00:06:05 62° S 00:11:05 10° E
IRS-1C Rocket 4.1 00:02:27 10° SSE 00:07:44 86° ENE 00:13:01 10° NNW
Okean-O 3.0 00:04:14 10° SE 00:08:23 41° ENE 00:12:32 10° N
Cosmos 2237 Rocket 2.8 00:02:50 10° SW 00:08:26 58° WNW 00:14:04 10° NNE
Cosmos 2333 Rocket 4.3 00:06:05 10° WSW 00:10:29 22° NW 00:14:54 10° N
CORIOLIS 4.1 00:05:10 10° SSE 00:10:34 69° ENE 00:16:00 10° N
Radarsat 4.5 00:08:27 10° SSE 00:13:37 77° ENE 00:18:50 10° N
H-2A R/B 2.6 00:11:59 10° SSE 00:15:41 89° W 00:19:23 10° NNW
Cosmos 1908 Rocket 3.5 00:11:39 10° N 00:16:00 59° E 00:20:16 10° SSE
Cosmos 2219 Rocket 4.5 00:15:47 10° W 00:19:39 19° NW 00:23:33 10° N
Cosmos 1441 Rocket 3.6 00:17:07 10° N 00:20:41 38° ENE 00:24:12 10° SSE
COSMO-SKYMED 1 3.0 00:17:44 10° NNE 00:21:51 41° E 00:25:57 10° S
Okean 1-7 3.1 00:17:38 10° S 00:21:51 56° E 00:26:08 10° NNE
USA 267 3.2 00:16:08 10° ESE 00:22:36 68° NE 00:29:06 10° NW
STARLINK-52 4.4 00:19:47 10° WSW 00:23:01 34° NW 00:25:41 14° NNE
Cosmos 1092 Rocket 4.0 00:17:11 10° S 00:23:29 85° E 00:29:47 10° N
YAOGAN 1 3.7 00:20:23 10° ESE 00:23:41 22° ENE 00:27:01 10° NNE
STARLINK-43 3.5 00:22:40 10° SSW 00:26:18 55° SE 00:28:28 22° ENE
SMAP 3.5 00:22:24 10° S 00:27:00 65° WSW 00:31:39 10° NNW
Delta 2 Rocket 4.5 00:22:58 10° SW 00:27:48 42° SSE 00:30:57 17° E
ISS -2.8 00:24:39 10° WNW 00:27:55 49° SW 00:31:10 10° SSE
OAO 3 Rocket 3.5 00:24:39 10° W 00:29:17 60° S 00:32:56 16° ESE
STARLINK-80 4.4 00:27:32 10° SSW 00:30:55 31° SE 00:32:25 23° E
Cosmos 1943 Rocket 3.6 00:28:12 10° NNE 00:31:43 17° NE 00:31:43 17° NE
Abrixas rocket 2.9 00:33:06 10° SSW 00:35:52 33° SE 00:36:34 29° ESE
Genesis I 3.4 00:32:31 10° NNW 00:36:16 45° NE 00:39:20 14° SE
CSL-04 Rocket 4.1 00:34:13 10° SE 00:38:58 35° ENE 00:43:44 10° N
Cosmos 1666 3.1 00:38:32 10° NNW 00:42:13 62° W 00:45:53 10° S
SKYMED 3 4.5 00:41:40 10° NNE 00:46:02 81° ESE 00:50:21 10° S
Cosmos 1190 Rocket 3.9 00:43:01 10° SSW 00:48:13 86° ESE 00:52:53 13° NNE
Cosmos 676 Rocket 4.1 00:45:28 10° S 00:50:27 51° ESE 00:53:10 25° NE
Cosmos 2297 3.6 00:47:01 10° NNW 00:52:43 71° ENE 00:58:20 10° SSE
CZ-3B R/B 4.0 00:50:45 10° S 00:53:52 15° SE 00:56:30 12° ESE
Cosmos 921 Rocket 2.8 00:50:40 10° NNW 00:54:59 79° ENE 00:59:21 10° SSE
CZ-4C R/B 3.0 00:52:04 10° SSE 00:55:41 25° ESE 00:55:41 25° ESE
CSL-04 Debris 4.2 00:51:44 10° SSE 00:57:01 54° ENE 01:02:17 10° N
Cosmos 1954 Rocket 4.0 00:53:28 10° S 00:58:31 57° ESE 01:00:53 30° NE
STARLINK-48 3.8 00:57:06 10° SSW 01:00:48 44° SE 01:00:58 43° SE
S3M 4.2 00:55:06 10° N 01:01:01 45° ENE 01:06:49 10° SSE
Shenzhou-11 Module 2.6 01:01:46 10° WNW 01:03:51 47° WNW 01:03:51 47° WNW
Okean 1 3.7 01:01:07 10° SSW 01:05:03 62° W 01:08:22 14° N
Cosmos 2266 Rocket 4.4 00:59:27 10° SSE 01:05:19 40° E 01:07:12 33° NE
SL-4 R/B 4.3 01:04:12 10° NNW 01:05:14 12° N 01:05:14 12° N
Okean 3 3.5 01:02:15 10° S 01:06:16 53° E 01:06:16 53° E
Lacrosse 5 2.4 01:03:53 10° S 01:08:34 38° SE 01:08:49 38° ESE
YAOGAN 6 3.1 01:05:40 10° S 01:09:08 57° W 01:12:40 10° NNW
CZ-4 R/B 1.2 01:05:24 10° SSE 01:09:18 86° WSW 01:13:11 10° NNW
SKYMED 2 4.3 01:05:44 10° N 01:09:58 53° WNW 01:14:11 10° SSW
Cosmos 1782 Rocket 4.1 01:06:31 10° NNW 01:10:47 58° W 01:15:01 10° S
Meteor 1-18 Rocket 4.4 01:05:14 10° SSW 01:10:58 74° W 01:16:37 10° N
Cosmos 1743 2.9 01:08:02 10° NNW 01:11:54 69° W 01:15:45 10° S
Cosmos 1553 Rocket 3.9 01:06:58 10° N 01:13:23 77° E 01:19:47 10° S
Cosmos 2221 Rocket 3.5 01:09:17 10° S 01:13:46 90° ESE 01:15:49 32° N
IRIDIUM 103 4.3 01:11:55 10° SSE 01:16:59 54° E 01:17:18 53° ENE
Okean 2 Rocket 3.0 01:13:11 10° N 01:17:49 67° E 01:22:08 10° SSE
Sich 1 Rocket 3.9 01:14:04 10° NNW 01:18:25 65° W 01:22:44 10° S
NOAA 11 4.0 01:15:40 10° SSE 01:21:03 68° ENE 01:26:30 10° N
Meteor 2-9 Rocket 4.1 01:15:27 10° N 01:21:19 71° E 01:27:02 10° SSE
Cosmos 1943 3.6 01:21:00 10° S 01:25:28 42° SE 01:25:28 42° SE
Cosmos 489 Rocket 4.3 01:20:28 10° NNW 01:26:51 77° ENE 01:33:12 10° SSE
Cosmos 1140 Rocket 4.2 01:23:35 10° SW 01:28:33 50° WNW 01:31:40 22° N
IRIDIUM 106 4.1 01:30:02 10° S 01:35:14 82° E 01:35:30 78° NE
Cosmos 1975 3.8 01:41:06 45° WSW 01:41:06 45° WSW 01:44:25 10° SSW
SL-16 R/B 4.0 01:38:22 10° WSW 01:43:08 27° WNW 01:47:20 12° N
Cosmos 2369 Rocket 3.5 01:38:01 10° NNW 01:40:29 26° N 01:40:29 26° N
ADEOS Rocket 4.5 01:52:34 20° S 01:52:34 20° S 01:54:18 10° S
Cosmos 1603 3.6 01:43:58 10° SSW 01:49:41 82° WNW 01:49:49 81° NW
OAO 2 Rocket 4.2 01:45:52 10° W 01:50:27 42° SSW 01:50:27 42° SSW
Gbstr 26 Del rocket 3.8 01:44:55 10° SW 01:51:55 77° SSE 01:51:55 77° SSE
YAOGAN 1 4.4 01:55:50 10° SSW 01:59:36 29° W 02:03:25 10° NW
Meteor 2-4 Rocket 4.4 01:57:57 10° SSW 02:03:42 55° WNW 02:05:19 42° NNW
Cosmos 1867 4.2 02:00:20 10° NW 02:04:53 53° WNW 02:04:53 53° WNW
H-II Stage 2 4.2 01:59:59 10° W 02:15:10 35° SSW 02:16:05 33° S
Cosmos 1943 Rocket 3.6 02:10:34 10° NNW 02:13:19 29° NW 02:13:19 29° NW
CZ-4C R/B 4.3 02:39:24 10° WSW 02:40:55 19° WSW 02:40:55 19° WSW
CZ-3B R/B 3.9 02:41:43 10° SW 02:44:37 25° SSW 02:44:37 25° SSW
Lacrosse 5 4.5 02:46:52 10° WSW 02:48:04 16° W 02:48:04 16° W
CZ-4C R/B 3.7 10:10:36 48° E 10:10:36 48° E 10:17:06 10° SE
USA 234 3.7 10:31:30 10° NE 10:36:35 56° ENE 10:36:35 56° ENE
BREEZE-M DEB 4.2 11:06:05 66° N 11:06:21 67° NNE 11:10:26 10° ESE
Cosmos 2263 Rocket 2.2 11:14:39 76° ENE 11:14:39 76° ENE 11:19:52 10° NNE
COSMO-SKYMED 1 4.5 11:11:17 10° SE 11:14:56 27° ENE 11:17:14 17° NNE
Cosmos 676 Rocket 4.0 11:20:03 76° NE 11:20:12 77° ENE 11:25:29 10° SSE
Cosmos 1092 Rocket 4.3 11:15:24 12° N 11:21:10 64° E 11:27:14 10° SSE
Cosmos 1954 Rocket 3.9 11:27:27 72° N 11:28:00 85° ENE 11:33:18 10° SSE
Cosmos 1703 Rocket 3.9 11:27:54 62° ENE 11:28:08 63° E 11:32:28 10° SSE
Cosmos 1420 Rocket 4.5 11:32:10 46° N 11:32:10 46° N 11:35:51 10° NNE
PSLV R/B 4.4 11:28:34 10° NNE 11:32:39 58° E 11:36:42 10° S
Timation 1 Rocket 4.2 11:30:15 23° SSW 11:34:10 85° WNW 11:40:10 10° NNE
Okean O Rocket 3.6 11:34:36 10° NE 11:38:26 29° E 11:42:16 10° SSE
Cosmos 1869 Rocket 3.6 11:36:46 10° S 11:41:04 74° E 11:45:24 10° N
STARLINK 1050 4.1 11:41:46 45° ENE 11:41:46 45° ENE 11:44:49 10° ESE
STARLINK 1011 4.5 11:45:27 33° ESE 11:45:27 33° ESE 11:47:17 10° ESE
STARLINK 1055 3.9 11:44:54 49° NE 11:44:54 49° NE 11:48:06 10° ESE
STARLINK 1047 4.5 11:46:08 32° ESE 11:46:08 32° ESE 11:47:56 10° ESE
STARLINK 1022 3.7 11:47:49 54° NE 11:47:49 54° NE 11:51:11 10° ESE
Cosmos 1461 3.7 11:49:12 38° SSW 11:49:12 38° SSW 11:52:28 10° S
STARLINK 1042 3.5 11:51:03 58° NE 11:51:03 58° NE 11:54:34 10° ESE
Cosmos 1346 Rocket 3.1 11:50:14 10° S 11:54:03 64° E 11:57:54 10° NNE
STARLINK 1056 3.4 11:54:14 62° NNE 11:54:22 63° NE 11:57:54 10° ESE
